| time (UTC) | temp F | wind direction | speed MPH | gust MPH | rain 1hr in | rain 24hr in | rain mn in | humidity % | barometer mb |
| 20260505070023 | 46 | 13 | 3.0 | 3.0 | 0.00 | 0.00 | 0.00 | 46 | 1003.7 |
| 20260505065513 | 46 | 355 | 3.0 | 4.0 | 0.00 | 0.00 | 0.00 | 46 | 1003.7 |
| 20260505065013 | 46 | 8 | 4.0 | 5.0 | 0.00 | 0.00 | 0.00 | 46 | 1004.1 |
| 20260505064513 | 47 | 358 | 4.0 | 5.0 | 0.00 | 0.00 | 0.00 | 46 | 1003.4 |
| 20260505064022 | 47 | 351 | 5.0 | 7.0 | 0.00 | 0.00 | 0.00 | 44 | 1003.4 |
| 20260505063513 | 47 | 339 | 2.0 | 5.0 | 0.00 | 0.00 | 0.00 | 44 | 1003.7 |
| 20260505063013 | 48 | 301 | 1.0 | 2.0 | 0.00 | 0.00 | 0.00 | 43 | 1003.4 |
| 20260505062738 | 48 | 306 | 5.0 | 7.0 | 0.00 | 0.00 | 0.00 | 42 | 1003.0 |
| 20260505062020 | 48 | 329 | 3.0 | 5.0 | 0.00 | 0.00 | 0.00 | 42 | 1003.0 |
| 20260505061513 | 48 | 315 | 2.0 | 6.0 | 0.00 | 0.00 | 0.00 | 43 | 1003.0 |
| 20260505061003 | 49 | 332 | 4.0 | 7.0 | 0.00 | 0.00 | 0.00 | 44 | 1003.4 |
| 20260505060520 | 49 | 333 | 4.0 | 4.0 | 0.00 | 0.00 | 0.00 | 44 | 1002.7 |
| 20260505060008 | 49 | 316 | 3.0 | 6.0 | 0.00 | 0.00 | 0.00 | 44 | 1003.0 |
| 20260505055522 | 49 | 357 | 3.0 | 5.0 | 0.00 | 0.00 | 0.00 | 43 | 1003.0 |
| 20260505055229 | 49 | 323 | 4.0 | 8.0 | 0.00 | 0.00 | 0.00 | 42 | 1003.0 |
| 20260505054513 | 50 | 307 | 5.0 | 9.0 | 0.00 | 0.00 | 0.00 | 42 | 1002.7 |
| 20260505054023 | 50 | 325 | 5.0 | 5.0 | 0.00 | 0.00 | 0.00 | 42 | 1002.7 |
| 20260505053521 | 50 | 356 | 9.0 | 11.0 | 0.00 | 0.00 | 0.00 | 41 | 1002.4 |
| 20260505053013 | 50 | 334 | 3.0 | 7.0 | 0.00 | 0.00 | 0.00 | 41 | 1002.0 |
| 20260505052512 | 50 | 325 | 5.0 | 5.0 | 0.00 | 0.00 | 0.00 | 41 | 1002.4 |
| 20260505052020 | 51 | 305 | 4.0 | 5.0 | 0.00 | 0.00 | 0.00 | 41 | 1002.4 |
| 20260505051513 | 51 | 356 | 6.0 | 8.0 | 0.00 | 0.00 | 0.00 | 41 | 1002.0 |
| 20260505051006 | 51 | 350 | 5.0 | 6.0 | 0.00 | 0.00 | 0.00 | 40 | 1002.0 |
| 20260505050513 | 52 | 310 | 6.0 | 10.0 | 0.00 | 0.00 | 0.00 | 39 | 1001.7 |
| 20260505041513 | 54 | 277 | 4.0 | 6.0 | 0.00 | 0.00 | 0.00 | 40 | 1000.3 |
| 20260505041022 | 54 | 334 | 4.0 | 8.0 | 0.00 | 0.00 | 0.00 | 40 | 1000.3 |
| 20260505040513 | 55 | 326 | 5.0 | 7.0 | 0.00 | 0.00 | 0.00 | 39 | 1000.3 |
| 20260505040013 | 55 | 318 | 6.0 | 8.0 | 0.00 | 0.00 | 0.00 | 39 | 1000.3 |
| 20260505035737 | 55 | 312 | 3.0 | 7.0 | 0.00 | 0.00 | 0.00 | 39 | 1000.0 |
| 20260505035013 | 55 | 329 | 6.0 | 7.0 | 0.00 | 0.00 | 0.00 | 39 | 1000.0 |
| 20260505034513 | 55 | 1 | 4.0 | 6.0 | 0.00 | 0.00 | 0.00 | 39 | 1000.0 |
| 20260505034022 | 56 | 329 | 7.0 | 8.0 | 0.00 | 0.00 | 0.00 | 39 | 999.7 |
| 20260505033513 | 56 | 339 | 7.0 | 12.0 | 0.00 | 0.00 | 0.00 | 38 | 999.7 |
| 20260505033013 | 56 | 342 | 3.0 | 10.0 | 0.00 | 0.00 | 0.00 | 38 | 999.7 |
| 20260505032523 | 56 | 344 | 3.0 | 5.0 | 0.00 | 0.00 | 0.00 | 40 | 999.3 |
| 20260505032013 | 56 | 139 | 4.0 | 7.0 | 0.00 | 0.00 | 0.00 | 39 | 998.6 |
| 20260505031513 | 57 | 14 | 1.0 | 4.0 | 0.00 | 0.00 | 0.00 | 39 | 998.6 |
| 20260505031023 | 57 | 349 | 2.0 | 4.0 | 0.00 | 0.00 | 0.00 | 38 | 998.3 |
| 20260505030521 | 57 | 30 | 4.0 | 5.0 | 0.00 | 0.00 | 0.00 | 37 | 998.0 |
| 20260505030008 | 57 | 316 | 8.0 | 10.0 | 0.00 | 0.00 | 0.00 | 36 | 998.0 |
| 20260505025522 | 58 | 338 | 4.0 | 6.0 | 0.00 | 0.00 | 0.00 | 35 | 997.6 |
| 20260505025236 | 58 | 333 | 8.0 | 9.0 | 0.00 | 0.00 | 0.00 | 35 | 997.6 |
| 20260505024513 | 58 | 324 | 4.0 | 7.0 | 0.00 | 0.00 | 0.00 | 35 | 998.0 |
| 20260505024003 | 58 | 325 | 10.0 | 11.0 | 0.00 | 0.00 | 0.00 | 34 | 997.6 |
| 20260505023520 | 58 | 330 | 6.0 | 11.0 | 0.00 | 0.00 | 0.00 | 33 | 997.6 |
| 20260505023008 | 58 | 311 | 6.0 | 13.0 | 0.00 | 0.00 | 0.00 | 33 | 998.0 |
| 20260505022523 | 59 | 315 | 8.0 | 11.0 | 0.00 | 0.00 | 0.00 | 33 | 998.0 |
| 20260505022020 | 59 | 310 | 6.0 | 8.0 | 0.00 | 0.00 | 0.00 | 34 | 998.0 |
| 20260505021523 | 59 | 255 | 3.0 | 5.0 | 0.00 | 0.00 | 0.00 | 34 | 997.6 |
| 20260505021023 | 60 | 353 | 4.0 | 5.0 | 0.00 | 0.00 | 0.00 | 33 | 997.6 |
| 20260505020737 | 60 | 331 | 5.0 | 11.0 | 0.00 | 0.00 | 0.00 | 33 | 997.3 |
| 20260505020013 | 60 | 314 | 8.0 | 10.0 | 0.00 | 0.00 | 0.00 | 33 | 997.0 |
| 20260505015513 | 60 | 338 | 3.0 | 7.0 | 0.00 | 0.00 | 0.00 | 33 | 997.0 |
| 20260505015013 | 60 | 334 | 5.0 | 6.0 | 0.00 | 0.00 | 0.00 | 34 | 997.0 |
| 20260505014513 | 61 | 358 | 8.0 | 8.0 | 0.00 | 0.00 | 0.00 | 34 | 996.6 |
| 20260505014023 | 62 | 329 | 5.0 | 6.0 | 0.00 | 0.00 | 0.00 | 34 | 996.3 |
| 20260505013513 | 62 | 335 | 7.0 | 9.0 | 0.00 | 0.00 | 0.00 | 33 | 996.3 |
| 20260505013013 | 62 | 343 | 4.0 | 6.0 | 0.00 | 0.00 | 0.00 | 33 | 996.3 |
| 20260505012738 | 62 | 297 | 4.0 | 5.0 | 0.00 | 0.00 | 0.00 | 33 | 995.9 |
| 20260505012013 | 63 | 328 | 5.0 | 6.0 | 0.00 | 0.00 | 0.00 | 32 | 995.9 |
| 20260505011513 | 63 | 253 | 6.0 | 7.0 | 0.00 | 0.00 | 0.00 | 31 | 995.9 |
| 20260505011237 | 63 | 1 | 3.0 | 8.0 | 0.00 | 0.00 | 0.00 | 31 | 995.6 |
| 20260505010513 | 63 | 332 | 6.0 | 6.0 | 0.00 | 0.00 | 0.00 | 31 | 995.6 |
| 20260505010013 | 63 | 268 | 3.0 | 8.0 | 0.00 | 0.00 | 0.00 | 31 | 995.9 |
| 20260505005523 | 64 | 346 | 6.0 | 8.0 | 0.00 | 0.00 | 0.00 | 30 | 995.6 |
| 20260505005013 | 64 | 208 | 1.0 | 3.0 | 0.00 | 0.00 | 0.00 | 30 | 995.6 |
| 20260505004513 | 65 | 311 | 5.0 | 6.0 | 0.00 | 0.00 | 0.00 | 30 | 995.3 |
| 20260505004022 | 65 | 168 | 3.0 | 5.0 | 0.00 | 0.00 | 0.00 | 29 | 995.3 |
| 20260505003513 | 65 | 251 | 4.0 | 6.0 | 0.00 | 0.00 | 0.00 | 29 | 995.3 |
| 20260505003013 | 66 | 326 | 8.0 | 12.0 | 0.00 | 0.00 | 0.00 | 29 | 994.9 |
| 20260505002523 | 66 | 195 | 3.0 | 4.0 | 0.00 | 0.00 | 0.00 | 29 | 994.9 |
| 20260505002013 | 66 | 344 | 5.0 | 7.0 | 0.00 | 0.00 | 0.00 | 30 | 994.6 |
| 20260505001513 | 66 | 189 | 2.0 | 4.0 | 0.00 | 0.00 | 0.00 | 30 | 994.6 |
| 20260505001023 | 66 | 287 | 4.0 | 5.0 | 0.00 | 0.00 | 0.00 | 30 | 994.6 |
| 20260505000513 | 66 | 278 | 1.0 | 6.0 | 0.00 | 0.00 | 0.00 | 29 | 994.2 |
| 20260505000013 | 67 | 187 | 2.0 | 4.0 | 0.00 | 0.00 | 0.00 | 29 | 994.2 |
| 20260504235522 | 67 | 321 | 10.0 | 14.0 | 0.00 | 0.00 | 0.00 | 29 | 994.2 |
| 20260504235011 | 67 | 318 | 5.0 | 6.0 | 0.00 | 0.00 | 0.00 | 29 | 994.2 |
| 20260504234723 | 68 | 284 | 4.0 | 8.0 | 0.00 | 0.00 | 0.00 | 30 | 994.2 |
| 20260504234022 | 68 | 317 | 2.0 | 3.0 | 0.00 | 0.00 | 0.00 | 29 | 993.9 |
| 20260504233516 | 68 | 318 | 2.0 | 8.0 | 0.00 | 0.00 | 0.00 | 30 | 993.9 |
| 20260504233228 | 68 | 309 | 3.0 | 6.0 | 0.00 | 0.00 | 0.00 | 30 | 994.2 |
| 20260504232513 | 68 | 24 | 5.0 | 5.0 | 0.00 | 0.00 | 0.00 | 31 | 994.2 |
| 20260504232236 | 68 | 332 | 7.0 | 12.0 | 0.00 | 0.00 | 0.00 | 30 | 993.6 |
| 20260504231513 | 69 | 337 | 7.0 | 9.0 | 0.00 | 0.00 | 0.00 | 30 | 993.9 |
| 20260504231003 | 69 | 155 | 0.0 | 5.0 | 0.00 | 0.00 | 0.00 | 30 | 993.6 |
| 20260504230505 | 69 | 268 | 1.0 | 3.0 | 0.00 | 0.00 | 0.00 | 29 | 993.6 |
| 20260504230444 | 69 | 269 | 0.0 | 10.0 | 0.00 | 0.00 | 0.00 | 29 | 993.9 |
| 20260504230423 | 69 | 325 | 8.0 | 10.0 | 0.00 | 0.00 | 0.00 | 29 | 993.9 |
| 20260504225013 | 70 | 259 | 2.0 | 6.0 | 0.00 | 0.00 | 0.00 | 29 | 993.6 |
| 20260504224513 | 70 | 285 | 1.0 | 7.0 | 0.00 | 0.00 | 0.00 | 29 | 993.6 |
| 20260504224023 | 71 | 322 | 12.0 | 13.0 | 0.00 | 0.00 | 0.00 | 29 | 993.6 |
| 20260504223520 | 71 | 222 | 5.0 | 10.0 | 0.00 | 0.00 | 0.00 | 29 | 993.6 |
| 20260504223013 | 71 | 300 | 5.0 | 6.0 | 0.00 | 0.00 | 0.00 | 30 | 993.6 |
| 20260504222513 | 72 | 320 | 3.0 | 9.0 | 0.00 | 0.00 | 0.00 | 31 | 993.6 |
| 20260504222013 | 72 | 309 | 6.0 | 14.0 | 0.00 | 0.00 | 0.00 | 32 | 993.2 |
| 20260504221513 | 72 | 263 | 2.0 | 6.0 | 0.00 | 0.00 | 0.00 | 32 | 993.6 |
| 20260504221023 | 72 | 235 | 5.0 | 10.0 | 0.00 | 0.00 | 0.00 | 32 | 993.2 |
| 20260504220513 | 73 | 177 | 10.0 | 12.0 | 0.00 | 0.00 | 0.00 | 31 | 993.2 |
| 20260504220013 | 73 | 225 | 6.0 | 9.0 | 0.00 | 0.00 | 0.00 | 31 | 993.2 |
| 20260504215522 | 73 | 165 | 4.0 | 6.0 | 0.00 | 0.00 | 0.00 | 32 | 992.6 |
| 20260504215008 | 73 | 35 | 3.0 | 6.0 | 0.00 | 0.00 | 0.00 | 32 | 992.9 |
| 20260504214523 | 73 | 324 | 6.0 | 12.0 | 0.00 | 0.00 | 0.00 | 31 | 992.6 |
| 20260504214023 | 73 | 277 | 3.0 | 7.0 | 0.00 | 0.00 | 0.00 | 32 | 992.6 |
| 20260504213720 | 74 | 256 | 3.0 | 7.0 | 0.00 | 0.00 | 0.00 | 31 | 992.6 |
| 20260504213443 | 74 | 262 | 7.0 | 9.0 | 0.00 | 0.00 | 0.00 | 32 | 992.6 |
| 20260504212523 | 74 | 297 | 4.0 | 7.0 | 0.00 | 0.00 | 0.00 | 32 | 992.6 |
| 20260504212013 | 75 | 319 | 3.0 | 7.0 | 0.00 | 0.00 | 0.00 | 31 | 992.6 |
| 20260504211513 | 75 | 315 | 7.0 | 9.0 | 0.00 | 0.00 | 0.00 | 31 | 992.2 |
| 20260504211023 | 75 | 250 | 9.0 | 10.0 | 0.00 | 0.00 | 0.00 | 30 | 992.2 |
| 20260504210520 | 75 | 298 | 13.0 | 13.0 | 0.00 | 0.00 | 0.00 | 30 | 992.2 |
| 20260504210013 | 76 | 237 | 8.0 | 9.0 | 0.00 | 0.00 | 0.00 | 30 | 992.2 |
| 20260504205503 | 76 | 342 | 4.0 | 6.0 | 0.00 | 0.00 | 0.00 | 31 | 992.2 |
| 20260504205442 | 76 | 281 | 3.0 | 4.0 | 0.00 | 0.00 | 0.00 | 32 | 992.2 |
| 20260504204513 | 77 | 211 | 5.0 | 8.0 | 0.00 | 0.00 | 0.00 | 32 | 992.2 |
| 20260504204023 | 77 | 247 | 6.0 | 9.0 | 0.00 | 0.00 | 0.00 | 33 | 992.2 |
| 20260504203513 | 76 | 213 | 6.0 | 6.0 | 0.00 | 0.00 | 0.00 | 32 | 991.9 |
| 20260504203013 | 77 | 201 | 5.0 | 7.0 | 0.00 | 0.00 | 0.00 | 32 | 991.9 |
| 20260504202523 | 76 | 268 | 4.0 | 6.0 | 0.00 | 0.00 | 0.00 | 32 | 991.9 |
| 20260504202013 | 77 | 202 | 8.0 | 9.0 | 0.00 | 0.00 | 0.00 | 31 | 992.2 |
| 20260504201513 | 77 | 172 | 4.0 | 6.0 | 0.00 | 0.00 | 0.00 | 32 | 991.9 |
| 20260504201023 | 76 | 70 | 2.0 | 5.0 | 0.00 | 0.00 | 0.00 | 32 | 991.9 |
| 20260504200520 | 76 | 198 | 5.0 | 7.0 | 0.00 | 0.00 | 0.00 | 33 | 992.2 |
| 20260504200013 | 76 | 214 | 8.0 | 15.0 | 0.00 | 0.00 | 0.00 | 32 | 992.2 |
| 20260504195513 | 76 | 288 | 5.0 | 5.0 | 0.00 | 0.00 | 0.00 | 32 | 992.2 |
| 20260504195020 | 76 | 191 | 7.0 | 8.0 | 0.00 | 0.00 | 0.00 | 33 | 992.2 |
| 20260504194513 | 75 | 208 | 3.0 | 7.0 | 0.00 | 0.00 | 0.00 | 32 | 992.2 |
| 20260504194003 | 76 | 275 | 2.0 | 5.0 | 0.00 | 0.00 | 0.00 | 32 | 991.9 |
| 20260504193513 | 76 | 204 | 4.0 | 8.0 | 0.00 | 0.00 | 0.00 | 32 | 992.2 |
| 20260504193013 | 76 | 217 | 9.0 | 9.0 | 0.00 | 0.00 | 0.00 | 32 | 992.2 |
| 20260504192523 | 75 | 185 | 5.0 | 6.0 | 0.00 | 0.00 | 0.00 | 32 | 992.2 |
| 20260504192013 | 75 | 178 | 5.0 | 12.0 | 0.00 | 0.00 | 0.00 | 32 | 992.6 |
| 20260504191513 | 76 | 202 | 7.0 | 8.0 | 0.00 | 0.00 | 0.00 | 31 | 992.2 |
| 20260504191022 | 76 | 285 | 4.0 | 8.0 | 0.00 | 0.00 | 0.00 | 32 | 992.2 |
| 20260504190511 | 75 | 319 | 3.0 | 7.0 | 0.00 | 0.00 | 0.00 | 31 | 992.2 |
| 20260504190222 | 76 | 213 | 5.0 | 13.0 | 0.00 | 0.00 | 0.00 | 30 | 992.2 |
| 20260504185523 | 76 | 311 | 2.0 | 9.0 | 0.00 | 0.00 | 0.00 | 30 | 992.6 |
| 20260504185013 | 76 | 234 | 9.0 | 11.0 | 0.00 | 0.00 | 0.00 | 30 | 992.2 |
| 20260504184522 | 76 | 210 | 10.0 | 13.0 | 0.00 | 0.00 | 0.00 | 30 | 992.6 |
| 20260504184013 | 77 | 245 | 4.0 | 6.0 | 0.00 | 0.00 | 0.00 | 30 | 992.2 |
| 20260504183513 | 78 | 223 | 9.0 | 12.0 | 0.00 | 0.00 | 0.00 | 30 | 992.2 |
| 20260504183023 | 78 | 206 | 8.0 | 11.0 | 0.00 | 0.00 | 0.00 | 29 | 992.2 |
| 20260504182513 | 78 | 230 | 4.0 | 9.0 | 0.00 | 0.00 | 0.00 | 30 | 992.2 |
| 20260504182013 | 77 | 200 | 3.0 | 8.0 | 0.00 | 0.00 | 0.00 | 30 | 992.2 |
| 20260504181513 | 77 | 255 | 11.0 | 14.0 | 0.00 | 0.00 | 0.00 | 30 | 992.6 |
| 20260504181023 | 76 | 160 | 6.0 | 6.0 | 0.00 | 0.00 | 0.00 | 30 | 992.2 |
| 20260504180513 | 76 | 213 | 4.0 | 12.0 | 0.00 | 0.00 | 0.00 | 30 | 992.6 |
| 20260504180013 | 76 | 180 | 10.0 | 14.0 | 0.00 | 0.00 | 0.00 | 30 | 992.2 |
| 20260504175522 | 75 | 232 | 11.0 | 14.0 | 0.00 | 0.00 | 0.00 | 30 | 992.6 |
| 20260504175020 | 75 | 224 | 3.0 | 6.0 | 0.00 | 0.00 | 0.00 | 30 | 992.6 |
| 20260504174513 | 75 | 191 | 5.0 | 8.0 | 0.00 | 0.00 | 0.00 | 30 | 992.6 |
| 20260504174238 | 76 | 237 | 8.0 | 11.0 | 0.00 | 0.00 | 0.00 | 30 | 992.6 |
| 20260504173727 | 75 | 211 | 8.0 | 12.0 | 0.00 | 0.00 | 0.00 | 30 | 992.9 |
| 20260504173013 | 75 | 214 | 7.0 | 11.0 | 0.00 | 0.00 | 0.00 | 30 | 992.9 |
| 20260504172523 | 75 | 204 | 12.0 | 13.0 | 0.00 | 0.00 | 0.00 | 30 | 992.9 |
| 20260504172020 | 75 | 213 | 6.0 | 10.0 | 0.00 | 0.00 | 0.00 | 31 | 992.9 |
| 20260504171513 | 75 | 283 | 10.0 | 15.0 | 0.00 | 0.00 | 0.00 | 31 | 993.2 |
| 20260504171003 | 75 | 289 | 8.0 | 10.0 | 0.00 | 0.00 | 0.00 | 30 | 992.9 |
| 20260504170513 | 75 | 174 | 8.0 | 12.0 | 0.00 | 0.00 | 0.00 | 31 | 992.9 |
| 20260504151022 | 67 | 224 | 6.0 | 6.0 | 0.00 | 0.00 | 0.00 | 44 | 994.9 |
| 20260504150513 | 67 | 116 | 4.0 | 5.0 | 0.00 | 0.00 | 0.00 | 45 | 994.9 |
| 20260504140736 | 64 | 187 | 2.0 | 2.0 | 0.00 | 0.00 | 0.00 | 48 | 995.9 |
| 20260504130521 | 58 | 180 | 5.0 | 6.0 | 0.00 | 0.00 | 0.00 | 56 | 997.3 |
| 20260504110513 | 52 | 134 | 2.0 | 6.0 | 0.00 | 0.00 | 0.00 | 72 | 998.6 |
| 20260504100513 | 52 | 153 | 4.0 | 5.0 | 0.00 | 0.00 | 0.00 | 73 | 999.7 |
| 20260504081513 | 46 | 122 | 1.0 | 3.0 | 0.00 | 0.00 | 0.00 | 71 | 1001.0 |
| 20260504081023 | 45 | 85 | 1.0 | 2.0 | 0.00 | 0.00 | 0.00 | 73 | 1001.4 |
| 20260504080520 | 43 | 95 | 0.0 | 3.0 | 0.00 | 0.00 | 0.00 | 75 | 1001.4 |